Date String (YYYY-MM-DD hh:mm:ss) UTC,Instrument flags,Ambient pressure (hPa),Sample flow (lpm),Bypass flow (lpm),Sample temperature (°C),Ambient temperature (°C),ASC tube jacket temperature (°C),LED temperature (°C),Box temperature (°C),Sample RH (%),Span deviation,Mass concentration (μg/m³),Mass concentration (μg/m³),Mass concentration (μg/m³)
DateTimeUTC,F1_M11,P_M11,Q1_M11,Q2_M11,T1_M11,T2_M11,T3_M11,T4_M11,T5_M11,U1_M11,ZSPAN_M11,X2_M11,X0_M11,X1_M11
2021-10-19 20:00:00,,0821.4,4.99,0.00,29.5,28.7,00.0,38.6,31.2,12.9,0000.0,0002.62,0008.83,0001.42
2021-10-19 20:01:00,,0821.4,5.00,0.00,29.5,28.7,00.0,38.6,31.3,13.0,0000.0,0002.63,0008.83,0001.43
2021-10-19 20:02:00,,0821.4,5.00,0.00,29.5,28.8,00.0,38.6,31.3,13.0,0000.0,0002.68,0008.99,0001.42
2021-10-19 20:03:00,,0821.4,5.01,0.00,29.5,28.8,00.0,38.6,31.3,12.8,0000.0,0002.71,0009.10,0001.42
2021-10-19 20:04:00,,0821.4,4.99,0.00,29.5,28.8,00.0,38.6,31.2,12.8,0000.0,0002.61,0008.80,0001.42
2021-10-19 20:05:00,,0821.4,5.00,0.00,29.4,28.8,00.0,38.6,31.2,12.7,0000.0,0002.65,0008.85,0001.43
2021-10-19 20:06:00,,0821.4,4.99,0.00,29.4,28.7,00.0,38.6,31.1,12.7,0000.0,0002.73,0009.02,0001.46
2021-10-19 20:07:00,,0821.4,5.01,0.00,29.4,28.7,00.0,38.6,31.2,12.7,0000.0,0002.74,0009.13,0001.47
2021-10-19 20:08:00,,0821.4,4.99,0.00,29.5,28.7,00.0,38.6,31.2,12.9,0000.0,0002.78,0009.02,0001.47
2021-10-19 20:09:00,,0821.4,5.01,0.00,29.5,28.8,00.0,38.6,31.2,13.0,0000.0,0002.74,0007.93,0001.47
2021-10-19 20:10:00,,0821.4,5.00,0.00,29.5,28.8,00.0,38.6,31.2,13.0,0000.0,0002.76,0007.29,0001.47
2021-10-19 20:11:00,,0821.4,5.00,0.00,29.5,28.8,00.0,38.6,31.3,12.9,0000.0,0002.81,0007.78,0001.48
2021-10-19 20:12:00,,0821.4,5.00,0.00,29.5,28.8,00.0,38.6,31.3,12.9,0000.0,0002.72,0007.64,0001.47
2021-10-19 20:13:00,,0821.4,4.99,0.00,29.5,28.8,00.0,38.6,31.3,12.8,0000.0,0002.68,0007.46,0001.47
2021-10-19 20:14:00,,0821.4,5.01,0.00,29.5,28.8,00.0,38.6,31.3,12.6,0000.0,0002.71,0007.42,0001.47
2021-10-19 20:15:00,,0821.4,5.00,0.00,29.5,28.8,00.0,38.6,31.3,12.5,0000.0,0002.78,0007.66,0001.47
2021-10-19 20:16:00,,0821.4,4.99,0.00,29.5,28.9,00.0,38.6,31.3,12.3,0000.0,0002.75,0007.81,0001.46
2021-10-19 20:17:00,,0821.4,5.00,0.00,29.6,28.9,00.0,38.6,31.3,12.3,0000.0,0002.77,0007.98,0001.46
2021-10-19 20:18:00,,0821.4,5.01,0.00,29.6,28.9,00.0,38.6,31.4,12.3,0000.0,0002.78,0008.92,0001.46
2021-10-19 20:19:00,,0821.4,5.00,0.00,29.6,28.9,00.0,38.6,31.4,12.1,0000.0,0002.71,0008.57,0001.45
2021-10-19 20:20:00,,0821.4,5.01,0.00,29.6,29.0,00.0,38.6,31.4,12.1,0000.0,0002.72,0008.44,0001.47
2021-10-19 20:21:00,,0821.4,5.00,0.00,29.7,29.0,00.0,38.7,31.4,12.1,0000.0,0002.66,0008.26,0001.49
2021-10-19 20:22:00,,0821.5,5.00,0.00,29.7,29.1,00.0,38.7,31.5,12.1,0000.0,0002.64,0008.11,0001.49
2021-10-19 20:23:00,,0821.5,5.00,0.00,29.7,29.1,00.0,38.7,31.5,12.3,0000.0,0002.69,0008.73,0001.51
2021-10-19 20:24:00,,0821.5,4.99,0.00,29.8,29.2,00.0,38.7,31.6,12.2,0000.0,0002.71,0008.97,0001.53
2021-10-19 20:25:00,,0821.4,5.00,0.00,29.8,29.2,00.0,38.7,31.6,12.0,0000.0,0002.69,0008.99,0001.53
2021-10-19 20:26:00,,0821.5,4.99,0.00,29.8,29.2,00.0,38.7,31.6,12.0,0000.0,0002.70,0009.07,0001.55
2021-10-19 20:27:00,,0821.4,5.01,0.00,29.8,29.2,00.0,38.8,31.6,12.1,0000.0,0002.68,0008.79,0001.56
2021-10-19 20:28:00,,0821.4,5.00,0.00,29.8,29.2,00.0,38.8,31.7,12.1,0000.0,0002.70,0008.75,0001.57
2021-10-19 20:29:00,,0821.4,5.00,0.00,29.9,29.3,00.0,38.8,31.7,12.1,0000.0,0002.61,0007.50,0001.57
2021-10-19 20:30:00,,0821.4,5.00,0.00,29.9,29.3,00.0,38.8,31.7,12.2,0000.0,0002.68,0007.72,0001.58
2021-10-19 20:31:00,,0821.4,5.01,0.00,29.9,29.3,00.0,38.8,31.7,12.4,0000.0,0002.73,0007.96,0001.58
2021-10-19 20:32:00,,0821.4,5.01,0.00,30.0,29.4,00.0,38.9,31.8,12.5,0000.0,0002.71,0007.99,0001.55
2021-10-19 20:33:00,,0821.4,4.99,0.00,30.0,29.4,00.0,38.9,31.8,12.4,0000.0,0002.69,0008.20,0001.56
2021-10-19 20:34:00,,0821.4,4.99,0.00,30.0,29.4,00.0,38.9,31.8,12.4,0000.0,0002.65,0007.95,0001.54
2021-10-19 20:35:00,,0821.4,5.00,0.00,30.0,29.4,00.0,38.9,31.9,12.4,0000.0,0002.62,0008.24,0001.54
2021-10-19 20:36:00,,0821.4,5.00,0.00,30.0,29.4,00.0,39.0,31.9,12.5,0000.0,0002.71,0008.47,0001.55
2021-10-19 20:37:00,,0821.4,5.01,0.00,30.0,29.4,00.0,39.0,31.9,12.3,0000.0,0002.80,0008.63,0001.55
2021-10-19 20:38:00,,0821.5,5.00,0.00,30.1,29.4,00.0,39.0,31.9,12.2,0000.0,0002.81,0008.93,0001.55
2021-10-19 20:39:00,,0821.5,5.00,0.00,30.1,29.4,00.0,39.0,31.9,12.2,0000.0,0002.76,0008.92,0001.56
2021-10-19 20:40:00,,0821.5,4.98,0.00,30.1,29.4,00.0,39.0,31.9,12.2,0000.0,0002.81,0009.50,0001.57
2021-10-19 20:41:00,,0821.6,5.01,0.00,30.1,29.4,00.0,39.1,31.9,12.3,0000.0,0002.77,0009.61,0001.56
2021-10-19 20:42:00,,0821.6,4.99,0.00,30.1,29.4,00.0,39.1,31.9,12.3,0000.0,0002.75,0009.53,0001.57
2021-10-19 20:43:00,,0821.6,5.00,0.00,30.1,29.4,00.0,39.1,31.9,12.5,0000.0,0002.75,0009.68,0001.57
2021-10-19 20:44:00,,0821.6,5.01,0.00,30.1,29.4,00.0,39.1,31.9,12.6,0000.0,0002.74,0009.76,0001.56
2021-10-19 20:45:00,,0821.6,5.01,0.00,30.1,29.4,00.0,39.1,31.9,12.6,0000.0,0002.81,0009.64,0001.56
2021-10-19 20:46:00,,0821.6,5.00,0.00,30.1,29.4,00.0,39.1,31.9,12.3,0000.0,0002.80,0009.34,0001.55
2021-10-19 20:47:00,,0821.6,5.00,0.00,30.1,29.4,00.0,39.1,31.8,12.1,0000.0,0002.72,0009.49,0001.55
2021-10-19 20:48:00,,0821.7,5.00,0.00,30.1,29.4,00.0,39.1,31.8,12.1,0000.0,0002.68,0009.35,0001.55
2021-10-19 20:49:00,,0821.7,5.00,0.00,30.1,29.4,00.0,39.1,31.8,12.3,0000.0,0002.59,0008.83,0001.54
2021-10-19 20:50:00,,0821.7,5.00,0.00,30.1,29.4,00.0,39.1,31.9,12.4,0000.0,0002.58,0008.92,0001.51
2021-10-19 20:51:00,,0821.7,5.00,0.00,30.1,29.4,00.0,39.1,31.8,12.5,0000.0,0002.50,0008.46,0001.49
2021-10-19 20:52:00,,0821.8,5.00,0.00,30.1,29.4,00.0,39.1,31.8,12.6,0000.0,0002.46,0008.58,0001.48
2021-10-19 20:53:00,,0821.8,5.00,0.00,30.1,29.4,00.0,39.1,31.8,12.5,0000.0,0002.45,0009.40,0001.46
2021-10-19 20:54:00,,0821.7,5.02,0.00,30.0,29.4,00.0,39.1,31.8,12.4,0000.0,0002.49,0009.43,0001.48
2021-10-19 20:55:00,,0821.8,4.99,0.00,30.0,29.3,00.0,39.1,31.7,12.5,0000.0,0002.52,0008.96,0001.48
2021-10-19 20:56:00,,0821.8,5.00,0.00,30.0,29.3,00.0,39.1,31.7,12.3,0000.0,0002.50,0008.82,0001.48
2021-10-19 20:57:00,,0821.8,4.98,0.00,30.0,29.3,00.0,39.1,31.7,12.3,0000.0,0002.52,0008.61,0001.51
2021-10-19 20:58:00,,0821.8,5.00,0.00,30.0,29.3,00.0,39.1,31.7,12.2,0000.0,0002.53,0008.22,0001.51
2021-10-19 20:59:00,,0821.8,5.01,0.00,30.0,29.3,00.0,39.1,31.6,12.4,0000.0,0002.50,0008.22,0001.50
